API VERSION: 1.2 API SOURCE: NASA/JPL Horizons API ******************************************************************************* JPL/HORIZONS 307261 Mani (2002 MS4) 2025-Dec-12 17:51:15 Rec #: 307261 (+COV) Soln.date: 2025-Jul-01_23:56:32 # obs: 496 (1954-2023) IAU76/J2000 helio. ecliptic osc. elements (au, days, deg., period=Julian yrs): EPOCH= 2458378.5 ! 2018-Sep-17.00 (TDB) Residual RMS= .068069 EC= .1393970721853619 QR= 36.11759125341557 TP= 2496542.2060495983 OM= 215.9145112848788 W= 213.7989882449192 IN= 17.6693032832701 A= 41.96777641127755 MA= 221.6495179243989 ADIST= 47.81796156913954 PER= 271.88306 N= .003625185 ANGMOM= .110351535 DAN= 46.54383 DDN= 36.88015 L= 68.4457026 B= -9.7206048 MOID= 35.14590073 TP= 2123-Mar-14.7060495983 Asteroid physical parameters (km, seconds, rotational period in hours): GM= n.a. RAD= n.a. ROTPER= n.a. H= 3.64 G= .150 B-V= n.a. ALBEDO= n.a. STYP= n.a. ASTEROID comments: 1: soln ref.= JPL#24, OCC=1 2: source=ORB ******************************************************************************* ******************************************************************************* Ephemeris / API_USER Fri Dec 12 17:51:15 2025 Pasadena, USA / Horizons ******************************************************************************* Target body name: 307261 Mani (2002 MS4) {source: JPL#24} Center body name: Sun (10) {source: DE441} Center-site name: BODYCENTRIC ******************************************************************************* Start time : A.D. 1853-Jan-01 00:00:00.0000 UT Stop time : A.D. 1854-Jan-01 00:00:00.0000 UT Step-size : 1440 minutes ******************************************************************************* Target pole/equ : undefined Target radii : undefined Center geodetic : 0.0, 0.0, -695700.0 {E-lon(deg),Lat(deg),Alt(km)} Center cylindric: 0.0, 0.0, 0.0 {E-lon(deg),Dxy(km),Dz(km)} Center pole/equ : IAU_SUN {East-longitude positive} Center radii : 695700.0, 695700.0, 695700.0 km {Equator_a, b, pole_c} Target primary : Sun Vis. interferer : None Rel. light bend : Sun {source: DE441} Rel. lght bnd GM: 1.3271E+11 km^3/s^2 Small-body perts: Yes {source: SB441-N16} Atmos refraction: NO (AIRLESS) RA format : HMS Time format : CAL Calendar mode : Mixed Julian/Gregorian EOP file : eop.251212.p260310 EOP coverage : DATA-BASED 1962-JAN-20 TO 2025-DEC-12. PREDICTS-> 2026-MAR-09 Units conversion: 1 au= 149597870.700 km, c= 299792.458 km/s, 1 day= 86400.0 s Table cut-offs 1: Elevation (-90.0deg=NO ),Airmass n.a. , Daylight (NO ) Table cut-offs 2: Solar elongation ( 0.0,180.0=NO ),Local Hour Angle( 0.0=NO ) Table cut-offs 3: RA/DEC angular rate ( 0.0=NO ) ******************************************************************************* Initial IAU76/J2000 heliocentric ecliptic osculating elements (au, days, deg.): EPOCH= 2458378.5 ! 2018-Sep-17.00 (TDB) Residual RMS= .068069 EC= .1393970721853619 QR= 36.11759125341557 TP= 2496542.2060495983 OM= 215.9145112848788 W= 213.7989882449192 IN= 17.6693032832701 Equivalent ICRF heliocentric cartesian coordinates (au, au/d): X= 8.531077298872756E+00 Y=-4.551572795956510E+01 Z=-5.624264445002593E+00 VX= 2.250711987524416E-03 VY= 5.646190938206951E-04 VZ= 5.014201600747414E-04 Asteroid physical parameters (km, seconds, rotational period in hours): GM= n.a. RAD= n.a. ROTPER= n.a. H= 3.64 G= .150 B-V= n.a. ALBEDO= n.a. STYP= n.a. ******************************************************************************* Date__(UT)__HR:MN delta deldot *************************************************** $$SOE 1853-Jan-01 00:00 35.6718333700901 -0.0079455 1853-Jan-02 00:00 35.6718288022004 -0.0078727 1853-Jan-03 00:00 35.6718242763727 -0.0077998 1853-Jan-04 00:00 35.6718197926697 -0.0077268 1853-Jan-05 00:00 35.6718153511509 -0.0076537 1853-Jan-06 00:00 35.6718109518725 -0.0075806 1853-Jan-07 00:00 35.6718065948874 -0.0075073 1853-Jan-08 00:00 35.6718022802456 -0.0074339 1853-Jan-09 00:00 35.6717980079941 -0.0073605 1853-Jan-10 00:00 35.6717937781775 -0.0072870 1853-Jan-11 00:00 35.6717895908378 -0.0072134 1853-Jan-12 00:00 35.6717854460148 -0.0071398 1853-Jan-13 00:00 35.6717813437460 -0.0070660 1853-Jan-14 00:00 35.6717772840670 -0.0069923 1853-Jan-15 00:00 35.6717732670114 -0.0069184 1853-Jan-16 00:00 35.6717692926111 -0.0068446 1853-Jan-17 00:00 35.6717653608962 -0.0067706 1853-Jan-18 00:00 35.6717614718953 -0.0066966 1853-Jan-19 00:00 35.6717576256356 -0.0066226 1853-Jan-20 00:00 35.6717538221425 -0.0065485 1853-Jan-21 00:00 35.6717500614403 -0.0064744 1853-Jan-22 00:00 35.6717463435518 -0.0064003 1853-Jan-23 00:00 35.6717426684985 -0.0063261 1853-Jan-24 00:00 35.6717390363007 -0.0062519 1853-Jan-25 00:00 35.6717354469775 -0.0061776 1853-Jan-26 00:00 35.6717319005465 -0.0061033 1853-Jan-27 00:00 35.6717283970243 -0.0060290 1853-Jan-28 00:00 35.6717249364264 -0.0059547 1853-Jan-29 00:00 35.6717215187669 -0.0058803 1853-Jan-30 00:00 35.6717181440590 -0.0058060 1853-Jan-31 00:00 35.6717148123144 -0.0057316 1853-Feb-01 00:00 35.6717115235440 -0.0056572 1853-Feb-02 00:00 35.6717082777571 -0.0055827 1853-Feb-03 00:00 35.6717050749624 -0.0055083 1853-Feb-04 00:00 35.6717019151668 -0.0054338 1853-Feb-05 00:00 35.6716987983764 -0.0053594 1853-Feb-06 00:00 35.6716957245961 -0.0052849 1853-Feb-07 00:00 35.6716926938294 -0.0052104 1853-Feb-08 00:00 35.6716897060786 -0.0051359 1853-Feb-09 00:00 35.6716867613447 -0.0050614 1853-Feb-10 00:00 35.6716838596276 -0.0049870 1853-Feb-11 00:00 35.6716810009256 -0.0049125 1853-Feb-12 00:00 35.6716781852357 -0.0048380 1853-Feb-13 00:00 35.6716754125537 -0.0047635 1853-Feb-14 00:00 35.6716726828735 -0.0046891 1853-Feb-15 00:00 35.6716699961880 -0.0046147 1853-Feb-16 00:00 35.6716673524880 -0.0045402 1853-Feb-17 00:00 35.6716647517629 -0.0044658 1853-Feb-18 00:00 35.6716621940005 -0.0043915 1853-Feb-19 00:00 35.6716596791864 -0.0043171 1853-Feb-20 00:00 35.6716572073046 -0.0042428 1853-Feb-21 00:00 35.6716547783370 -0.0041685 1853-Feb-22 00:00 35.6716523922631 -0.0040943 1853-Feb-23 00:00 35.6716500490606 -0.0040201 1853-Feb-24 00:00 35.6716477487045 -0.0039459 1853-Feb-25 00:00 35.6716454911674 -0.0038718 1853-Feb-26 00:00 35.6716432764194 -0.0037977 1853-Feb-27 00:00 35.6716411044275 -0.0037237 1853-Feb-28 00:00 35.6716389751564 -0.0036498 1853-Mar-01 00:00 35.6716368885675 -0.0035759 1853-Mar-02 00:00 35.6716348446195 -0.0035021 1853-Mar-03 00:00 35.6716328432681 -0.0034284 1853-Mar-04 00:00 35.6716308844662 -0.0033548 1853-Mar-05 00:00 35.6716289681642 -0.0032812 1853-Mar-06 00:00 35.6716270943102 -0.0032078 1853-Mar-07 00:00 35.6716252628504 -0.0031344 1853-Mar-08 00:00 35.6716234737298 -0.0030612 1853-Mar-09 00:00 35.6716217268931 -0.0029880 1853-Mar-10 00:00 35.6716200222854 -0.0029149 1853-Mar-11 00:00 35.6716183598533 -0.0028419 1853-Mar-12 00:00 35.6716167395465 -0.0027690 1853-Mar-13 00:00 35.6716151613185 -0.0026962 1853-Mar-14 00:00 35.6716136251282 -0.0026235 1853-Mar-15 00:00 35.6716121309406 -0.0025508 1853-Mar-16 00:00 35.6716106787281 -0.0024781 1853-Mar-17 00:00 35.6716092684707 -0.0024055 1853-Mar-18 00:00 35.6716079001561 -0.0023329 1853-Mar-19 00:00 35.6716065737797 -0.0022603 1853-Mar-20 00:00 35.6716052893437 -0.0021876 1853-Mar-21 00:00 35.6716040468563 -0.0021150 1853-Mar-22 00:00 35.6716028463305 -0.0020423 1853-Mar-23 00:00 35.6716016877827 -0.0019696 1853-Mar-24 00:00 35.6716005712316 -0.0018969 1853-Mar-25 00:00 35.6715994966965 -0.0018241 1853-Mar-26 00:00 35.6715984641969 -0.0017513 1853-Mar-27 00:00 35.6715974737510 -0.0016785 1853-Mar-28 00:00 35.6715965253750 -0.0016056 1853-Mar-29 00:00 35.6715956190830 -0.0015328 1853-Mar-30 00:00 35.6715947548861 -0.0014599 1853-Mar-31 00:00 35.6715939327927 -0.0013870 1853-Apr-01 00:00 35.6715931528081 -0.0013141 1853-Apr-02 00:00 35.6715924149345 -0.0012411 1853-Apr-03 00:00 35.6715917191715 -0.0011682 1853-Apr-04 00:00 35.6715910655157 -0.0010953 1853-Apr-05 00:00 35.6715904539615 -0.0010224 1853-Apr-06 00:00 35.6715898845008 -0.0009496 1853-Apr-07 00:00 35.6715893571234 -0.0008767 1853-Apr-08 00:00 35.6715888718175 -0.0008039 1853-Apr-09 00:00 35.6715884285692 -0.0007311 1853-Apr-10 00:00 35.6715880273636 -0.0006583 1853-Apr-11 00:00 35.6715876681842 -0.0005855 1853-Apr-12 00:00 35.6715873510136 -0.0005128 1853-Apr-13 00:00 35.6715870758335 -0.0004401 1853-Apr-14 00:00 35.6715868426246 -0.0003675 1853-Apr-15 00:00 35.6715866513672 -0.0002948 1853-Apr-16 00:00 35.6715865020410 -0.0002223 1853-Apr-17 00:00 35.6715863946251 -0.0001497 1853-Apr-18 00:00 35.6715863290987 -0.0000772 1853-Apr-19 00:00 35.6715863054403 -0.0000047 1853-Apr-20 00:00 35.6715863236287 0.0000677 1853-Apr-21 00:00 35.6715863836423 0.0001401 1853-Apr-22 00:00 35.6715864854597 0.0002125 1853-Apr-23 00:00 35.6715866290594 0.0002848 1853-Apr-24 00:00 35.6715868144202 0.0003571 1853-Apr-25 00:00 35.6715870415208 0.0004293 1853-Apr-26 00:00 35.6715873103404 0.0005016 1853-Apr-27 00:00 35.6715876208582 0.0005737 1853-Apr-28 00:00 35.6715879730537 0.0006459 1853-Apr-29 00:00 35.6715883669067 0.0007180 1853-Apr-30 00:00 35.6715888023975 0.0007901 1853-May-01 00:00 35.6715892795064 0.0008621 1853-May-02 00:00 35.6715897982143 0.0009341 1853-May-03 00:00 35.6715903585023 0.0010061 1853-May-04 00:00 35.6715909603520 0.0010780 1853-May-05 00:00 35.6715916037454 0.0011500 1853-May-06 00:00 35.6715922886645 0.0012218 1853-May-07 00:00 35.6715930150920 0.0012937 1853-May-08 00:00 35.6715937830109 0.0013655 1853-May-09 00:00 35.6715945924044 0.0014373 1853-May-10 00:00 35.6715954432560 0.0015091 1853-May-11 00:00 35.6715963355496 0.0015808 1853-May-12 00:00 35.6715972692691 0.0016525 1853-May-13 00:00 35.6715982443989 0.0017242 1853-May-14 00:00 35.6715992609231 0.0017959 1853-May-15 00:00 35.6716003188263 0.0018675 1853-May-16 00:00 35.6716014180928 0.0019391 1853-May-17 00:00 35.6716025587069 0.0020107 1853-May-18 00:00 35.6716037406528 0.0020823 1853-May-19 00:00 35.6716049639144 0.0021538 1853-May-20 00:00 35.6716062284752 0.0022253 1853-May-21 00:00 35.6716075343181 0.0022967 1853-May-22 00:00 35.6716088814256 0.0023682 1853-May-23 00:00 35.6716102697794 0.0024396 1853-May-24 00:00 35.6716116993603 0.0025109 1853-May-25 00:00 35.6716131701479 0.0025823 1853-May-26 00:00 35.6716146821211 0.0026536 1853-May-27 00:00 35.6716162352571 0.0027248 1853-May-28 00:00 35.6716178295321 0.0027960 1853-May-29 00:00 35.6716194649208 0.0028672 1853-May-30 00:00 35.6716211413965 0.0029383 1853-May-31 00:00 35.6716228589313 0.0030094 1853-Jun-01 00:00 35.6716246174962 0.0030804 1853-Jun-02 00:00 35.6716264170614 0.0031513 1853-Jun-03 00:00 35.6716282575965 0.0032223 1853-Jun-04 00:00 35.6716301390717 0.0032931 1853-Jun-05 00:00 35.6716320614579 0.0033639 1853-Jun-06 00:00 35.6716340247280 0.0034347 1853-Jun-07 00:00 35.6716360288578 0.0035054 1853-Jun-08 00:00 35.6716380738272 0.0035761 1853-Jun-09 00:00 35.6716401596216 0.0036468 1853-Jun-10 00:00 35.6716422862328 0.0037175 1853-Jun-11 00:00 35.6716444536601 0.0037881 1853-Jun-12 00:00 35.6716466619113 0.0038588 1853-Jun-13 00:00 35.6716489110030 0.0039296 1853-Jun-14 00:00 35.6716512009607 0.0040004 1853-Jun-15 00:00 35.6716535318186 0.0040712 1853-Jun-16 00:00 35.6716559036188 0.0041421 1853-Jun-17 00:00 35.6716583164104 0.0042132 1853-Jun-18 00:00 35.6716607702483 0.0042843 1853-Jun-19 00:00 35.6716632651918 0.0043555 1853-Jun-20 00:00 35.6716658013031 0.0044268 1853-Jun-21 00:00 35.6716683786465 0.0044983 1853-Jun-22 00:00 35.6716709972867 0.0045699 1853-Jun-23 00:00 35.6716736572881 0.0046415 1853-Jun-24 00:00 35.6716763587140 0.0047133 1853-Jun-25 00:00 35.6716791016261 0.0047852 1853-Jun-26 00:00 35.6716818860837 0.0048572 1853-Jun-27 00:00 35.6716847121442 0.0049293 1853-Jun-28 00:00 35.6716875798622 0.0050014 1853-Jun-29 00:00 35.6716904892900 0.0050737 1853-Jun-30 00:00 35.6716934404775 0.0051460 1853-Jul-01 00:00 35.6716964334723 0.0052185 1853-Jul-02 00:00 35.6716994683196 0.0052910 1853-Jul-03 00:00 35.6717025450628 0.0053635 1853-Jul-04 00:00 35.6717056637436 0.0054362 1853-Jul-05 00:00 35.6717088244016 0.0055089 1853-Jul-06 00:00 35.6717120270753 0.0055817 1853-Jul-07 00:00 35.6717152718015 0.0056545 1853-Jul-08 00:00 35.6717185586159 0.0057274 1853-Jul-09 00:00 35.6717218875532 0.0058004 1853-Jul-10 00:00 35.6717252586467 0.0058734 1853-Jul-11 00:00 35.6717286719292 0.0059465 1853-Jul-12 00:00 35.6717321274325 0.0060196 1853-Jul-13 00:00 35.6717356251875 0.0060928 1853-Jul-14 00:00 35.6717391652246 0.0061660 1853-Jul-15 00:00 35.6717427475734 0.0062393 1853-Jul-16 00:00 35.6717463722628 0.0063127 1853-Jul-17 00:00 35.6717500393212 0.0063860 1853-Jul-18 00:00 35.6717537487765 0.0064595 1853-Jul-19 00:00 35.6717575006559 0.0065330 1853-Jul-20 00:00 35.6717612949860 0.0066065 1853-Jul-21 00:00 35.6717651317930 0.0066801 1853-Jul-22 00:00 35.6717690111023 0.0067537 1853-Jul-23 00:00 35.6717729329389 0.0068273 1853-Jul-24 00:00 35.6717768973271 0.0069010 1853-Jul-25 00:00 35.6717809042907 0.0069748 1853-Jul-26 00:00 35.6717849538528 0.0070485 1853-Jul-27 00:00 35.6717890460358 0.0071223 1853-Jul-28 00:00 35.6717931808616 0.0071962 1853-Jul-29 00:00 35.6717973583511 0.0072701 1853-Jul-30 00:00 35.6718015785246 0.0073440 1853-Jul-31 00:00 35.6718058414016 0.0074180 1853-Aug-01 00:00 35.6718101470008 0.0074920 1853-Aug-02 00:00 35.6718144953400 0.0075660 1853-Aug-03 00:00 35.6718188864360 0.0076400 1853-Aug-04 00:00 35.6718233203047 0.0077141 1853-Aug-05 00:00 35.6718277969609 0.0077882 1853-Aug-06 00:00 35.6718323164183 0.0078623 1853-Aug-07 00:00 35.6718368786894 0.0079364 1853-Aug-08 00:00 35.6718414837857 0.0080106 1853-Aug-09 00:00 35.6718461317170 0.0080848 1853-Aug-10 00:00 35.6718508224919 0.0081590 1853-Aug-11 00:00 35.6718555561175 0.0082332 1853-Aug-12 00:00 35.6718603325992 0.0083074 1853-Aug-13 00:00 35.6718651519409 0.0083816 1853-Aug-14 00:00 35.6718700141445 0.0084558 1853-Aug-15 00:00 35.6718749192100 0.0085300 1853-Aug-16 00:00 35.6718798671352 0.0086042 1853-Aug-17 00:00 35.6718848579160 0.0086784 1853-Aug-18 00:00 35.6718898915457 0.0087526 1853-Aug-19 00:00 35.6718949680150 0.0088268 1853-Aug-20 00:00 35.6719000873122 0.0089009 1853-Aug-21 00:00 35.6719052494227 0.0089750 1853-Aug-22 00:00 35.6719104543289 0.0090491 1853-Aug-23 00:00 35.6719157020101 0.0091232 1853-Aug-24 00:00 35.6719209924425 0.0091972 1853-Aug-25 00:00 35.6719263255992 0.0092711 1853-Aug-26 00:00 35.6719317014498 0.0093450 1853-Aug-27 00:00 35.6719371199608 0.0094188 1853-Aug-28 00:00 35.6719425810961 0.0094926 1853-Aug-29 00:00 35.6719480848164 0.0095663 1853-Aug-30 00:00 35.6719536310805 0.0096399 1853-Aug-31 00:00 35.6719592198454 0.0097135 1853-Sep-01 00:00 35.6719648510673 0.0097869 1853-Sep-02 00:00 35.6719705247023 0.0098603 1853-Sep-03 00:00 35.6719762407077 0.0099337 1853-Sep-04 00:00 35.6719819990430 0.0100069 1853-Sep-05 00:00 35.6719877996714 0.0100801 1853-Sep-06 00:00 35.6719936425607 0.0101533 1853-Sep-07 00:00 35.6719995276843 0.0102264 1853-Sep-08 00:00 35.6720054550225 0.0102995 1853-Sep-09 00:00 35.6720114245624 0.0103725 1853-Sep-10 00:00 35.6720174362983 0.0104456 1853-Sep-11 00:00 35.6720234902317 0.0105187 1853-Sep-12 00:00 35.6720295863700 0.0105917 1853-Sep-13 00:00 35.6720357247261 0.0106649 1853-Sep-14 00:00 35.6720419053170 0.0107380 1853-Sep-15 00:00 35.6720481281622 0.0108112 1853-Sep-16 00:00 35.6720543932832 0.0108844 1853-Sep-17 00:00 35.6720607007011 0.0109577 1853-Sep-18 00:00 35.6720670504366 0.0110309 1853-Sep-19 00:00 35.6720734425084 0.0111043 1853-Sep-20 00:00 35.6720798769324 0.0111776 1853-Sep-21 00:00 35.6720863537216 0.0112510 1853-Sep-22 00:00 35.6720928728856 0.0113243 1853-Sep-23 00:00 35.6720994344302 0.0113977 1853-Sep-24 00:00 35.6721060383574 0.0114711 1853-Sep-25 00:00 35.6721126846655 0.0115445 1853-Sep-26 00:00 35.6721193733491 0.0116178 1853-Sep-27 00:00 35.6721261043995 0.0116912 1853-Sep-28 00:00 35.6721328778043 0.0117645 1853-Sep-29 00:00 35.6721396935484 0.0118378 1853-Sep-30 00:00 35.6721465516135 0.0119111 1853-Oct-01 00:00 35.6721534519788 0.0119843 1853-Oct-02 00:00 35.6721603946207 0.0120575 1853-Oct-03 00:00 35.6721673795135 0.0121306 1853-Oct-04 00:00 35.6721744066295 0.0122037 1853-Oct-05 00:00 35.6721814759387 0.0122767 1853-Oct-06 00:00 35.6721885874097 0.0123497 1853-Oct-07 00:00 35.6721957410090 0.0124226 1853-Oct-08 00:00 35.6722029367019 0.0124955 1853-Oct-09 00:00 35.6722101744522 0.0125682 1853-Oct-10 00:00 35.6722174542225 0.0126410 1853-Oct-11 00:00 35.6722247759740 0.0127136 1853-Oct-12 00:00 35.6722321396669 0.0127862 1853-Oct-13 00:00 35.6722395452605 0.0128587 1853-Oct-14 00:00 35.6722469927129 0.0129312 1853-Oct-15 00:00 35.6722544819815 0.0130035 1853-Oct-16 00:00 35.6722620130229 0.0130758 1853-Oct-17 00:00 35.6722695857927 0.0131480 1853-Oct-18 00:00 35.6722772002461 0.0132202 1853-Oct-19 00:00 35.6722848563374 0.0132922 1853-Oct-20 00:00 35.6722925540204 0.0133642 1853-Oct-21 00:00 35.6723002932482 0.0134361 1853-Oct-22 00:00 35.6723080739735 0.0135079 1853-Oct-23 00:00 35.6723158961483 0.0135796 1853-Oct-24 00:00 35.6723237597242 0.0136513 1853-Oct-25 00:00 35.6723316646524 0.0137228 1853-Oct-26 00:00 35.6723396108836 0.0137943 1853-Oct-27 00:00 35.6723475983678 0.0138657 1853-Oct-28 00:00 35.6723556270549 0.0139370 1853-Oct-29 00:00 35.6723636968944 0.0140082 1853-Oct-30 00:00 35.6723718078351 0.0140793 1853-Oct-31 00:00 35.6723799598257 0.0141503 1853-Nov-01 00:00 35.6723881528142 0.0142213 1853-Nov-02 00:00 35.6723963867483 0.0142921 1853-Nov-03 00:00 35.6724046615754 0.0143629 1853-Nov-04 00:00 35.6724129772422 0.0144335 1853-Nov-05 00:00 35.6724213336950 0.0145041 1853-Nov-06 00:00 35.6724297308797 0.0145746 1853-Nov-07 00:00 35.6724381687414 0.0146450 1853-Nov-08 00:00 35.6724466472247 0.0147153 1853-Nov-09 00:00 35.6724551662735 0.0147855 1853-Nov-10 00:00 35.6724637258311 0.0148555 1853-Nov-11 00:00 35.6724723258397 0.0149255 1853-Nov-12 00:00 35.6724809662408 0.0149954 1853-Nov-13 00:00 35.6724896469749 0.0150652 1853-Nov-14 00:00 35.6724983679812 0.0151349 1853-Nov-15 00:00 35.6725071291979 0.0152044 1853-Nov-16 00:00 35.6725159305618 0.0152739 1853-Nov-17 00:00 35.6725247720083 0.0153432 1853-Nov-18 00:00 35.6725336534712 0.0154125 1853-Nov-19 00:00 35.6725425748828 0.0154816 1853-Nov-20 00:00 35.6725515361736 0.0155506 1853-Nov-21 00:00 35.6725605372726 0.0156194 1853-Nov-22 00:00 35.6725695781069 0.0156882 1853-Nov-23 00:00 35.6725786586022 0.0157568 1853-Nov-24 00:00 35.6725877786829 0.0158253 1853-Nov-25 00:00 35.6725969382723 0.0158936 1853-Nov-26 00:00 35.6726061372932 0.0159618 1853-Nov-27 00:00 35.6726153756685 0.0160299 1853-Nov-28 00:00 35.6726246533219 0.0160978 1853-Nov-29 00:00 35.6726339701791 0.0161656 1853-Nov-30 00:00 35.6726433261685 0.0162333 1853-Dec-01 00:00 35.6726527212228 0.0163009 1853-Dec-02 00:00 35.6726621552801 0.0163684 1853-Dec-03 00:00 35.6726716282850 0.0164358 1853-Dec-04 00:00 35.6726811401900 0.0165031 1853-Dec-05 00:00 35.6726906909560 0.0165704 1853-Dec-06 00:00 35.6727002805529 0.0166376 1853-Dec-07 00:00 35.6727099089599 0.0167048 1853-Dec-08 00:00 35.6727195761651 0.0167719 1853-Dec-09 00:00 35.6727292821647 0.0168391 1853-Dec-10 00:00 35.6727390269626 0.0169063 1853-Dec-11 00:00 35.6727488105685 0.0169735 1853-Dec-12 00:00 35.6727586329971 0.0170407 1853-Dec-13 00:00 35.6727684942668 0.0171080 1853-Dec-14 00:00 35.6727783943982 0.0171753 1853-Dec-15 00:00 35.6727883334129 0.0172427 1853-Dec-16 00:00 35.6727983113332 0.0173100 1853-Dec-17 00:00 35.6728083281806 0.0173775 1853-Dec-18 00:00 35.6728183839759 0.0174449 1853-Dec-19 00:00 35.6728284787383 0.0175124 1853-Dec-20 00:00 35.6728386124857 0.0175799 1853-Dec-21 00:00 35.6728487852342 0.0176474 1853-Dec-22 00:00 35.6728589969985 0.0177150 1853-Dec-23 00:00 35.6728692477914 0.0177826 1853-Dec-24 00:00 35.6728795376249 0.0178502 1853-Dec-25 00:00 35.6728898665092 0.0179178 1853-Dec-26 00:00 35.6729002344538 0.0179855 1853-Dec-27 00:00 35.6729106414675 0.0180531 1853-Dec-28 00:00 35.6729210875582 0.0181208 1853-Dec-29 00:00 35.6729315727335 0.0181885 1853-Dec-30 00:00 35.6729420970009 0.0182562 1853-Dec-31 00:00 35.6729526603674 0.0183239 1854-Jan-01 00:00 35.6729632628406 0.0183916 $$EOE ******************************************************************************* Column meaning: TIME Times PRIOR to 1962 are UT1, a mean-solar time closely related to the prior but now-deprecated GMT. Times AFTER 1962 are in UTC, the current civil or "wall-clock" time-scale. UTC is kept within 0.9 seconds of UT1 using integer leap-seconds for 1972 and later years. Conversion from the internal Barycentric Dynamical Time (TDB) of solar system dynamics to the non-uniform civil UT time-scale requested for output has not been determined for UTC times after the next July or January 1st. Therefore, the last known leap-second is used as a constant over future intervals. Time tags refer to the UT time-scale conversion from TDB on Earth regardless of observer location within the solar system, although clock rates may differ due to the local gravity field and no analog to "UT" may be defined for that location. Any 'b' symbol in the 1st-column denotes a B.C. date. First-column blank (" ") denotes an A.D. date. CALENDAR SYSTEM Mixed calendar mode was active such that calendar dates after AD 1582-Oct-15 (if any) are in the modern Gregorian system. Dates prior to 1582-Oct-5 (if any) are in the Julian calendar system, which is automatically extended for dates prior to its adoption on 45-Jan-1 BC. The Julian calendar is useful for matching historical dates. The Gregorian calendar more accurately corresponds to the Earth's orbital motion and seasons. A "Gregorian-only" calendar mode is available if such physical events are the primary interest. NOTE: "n.a." in output means quantity "not available" at the print-time. 'delta deldot' = Apparent range ("delta", light-time aberrated) and range-rate ("delta-dot") of the target center relative to the observer. A positive "deldot" means the target center is moving away from the observer, negative indicates movement toward the observer. Units: AU and KM/S Computations by ... Solar System Dynamics Group, Horizons On-Line Ephemeris System 4800 Oak Grove Drive, Jet Propulsion Laboratory Pasadena, CA 91109 USA General site: https://ssd.jpl.nasa.gov/ Mailing list: https://ssd.jpl.nasa.gov/email_list.html System news : https://ssd.jpl.nasa.gov/horizons/news.html User Guide : https://ssd.jpl.nasa.gov/horizons/manual.html Connect : browser https://ssd.jpl.nasa.gov/horizons/app.html#/x API https://ssd-api.jpl.nasa.gov/doc/horizons.html command-line telnet ssd.jpl.nasa.gov 6775 e-mail/batch https://ssd.jpl.nasa.gov/ftp/ssd/horizons_batch.txt scripts https://ssd.jpl.nasa.gov/ftp/ssd/SCRIPTS Author : Jon.D.Giorgini@jpl.nasa.gov *******************************************************************************